When you browse on this site, cookies collect data to enhance your experience and personalize the content and advertising you see.
Visit our Privacy Policy to learn more. By continuing to use the site, you agree to this use of cookies and data.
  • en Belgique
  • Liste des pays
  • À 7 jours
  • Température de l'eau
  • Carte satellitaire
  • Carte météo
  • Widgets météo
  • user-avatar
    Se connecter

    Météo par heure à Ans

    Ce jour, 20 Février, Mercredi

    Heure Température Précipitation Vent Pression Humidité
    00:00 +4°C° 0 mm 2 m/s 751 mmHg 88%
    01:00 +4°C° 0 mm 2 m/s 751 mmHg 89%
    02:00 +3°C° 0 mm 2 m/s 751 mmHg 89%
    03:00 +3°C° 0 mm 2 m/s 751 mmHg 90%
    04:00 +3°C° 0 mm 2 m/s 751 mmHg 91%
    05:00 +3°C° 0 mm 2 m/s 751 mmHg 92%
    06:00 +3°C° 0 mm 2 m/s 752 mmHg 94%
    07:00 +3°C° 0 mm 3 m/s 752 mmHg 90%
    08:00 +4°C° 0 mm 3 m/s 752 mmHg 87%
    09:00 +5°C° 0 mm 4 m/s 752 mmHg 83%
    10:00 +6°C° 0 mm 4 m/s 752 mmHg 77%
    11:00 +8°C° 0 mm 4 m/s 753 mmHg 70%
    12:00 +10°C° 0 mm 4 m/s 753 mmHg 66%
    13:00 +10°C° 0 mm 4 m/s 753 mmHg 65%
    14:00 +10°C° 0 mm 3 m/s 753 mmHg 64%
    15:00 +11°C° 0 mm 3 m/s 752 mmHg 63%
    16:00 +9°C° 0 mm 3 m/s 753 mmHg 70%
    17:00 +8°C° 0 mm 2 m/s 753 mmHg 78%
    18:00 +6°C° 0 mm 2 m/s 753 mmHg 85%
    19:00 +6°C° 0 mm 2 m/s 753 mmHg 87%
    20:00 +6°C° 0 mm 2 m/s 753 mmHg 89%
    21:00 +5°C° 0 mm 2 m/s 754 mmHg 92%
    22:00 +5°C° 0 mm 2 m/s 754 mmHg 92%
    23:00 +5°C° 0 mm 2 m/s 754 mmHg 92%

    Demain, 21 Février, Jeudi

    Heure Température Précipitation Vent Pression Humidité
    00:00 +5°C° 0 mm 2 m/s 754 mmHg 93%
    01:00 +5°C° 0 mm 2 m/s 754 mmHg 93%
    02:00 +5°C° 0 mm 2 m/s 754 mmHg 93%
    03:00 +4°C° 0 mm 2 m/s 755 mmHg 93%
    04:00 +4°C° 0 mm 2 m/s 755 mmHg 93%
    05:00 +4°C° 0 mm 2 m/s 755 mmHg 93%
    06:00 +4°C° 0 mm 2 m/s 755 mmHg 93%
    07:00 +5°C° 0 mm 2 m/s 755 mmHg 90%
    08:00 +7°C° 0 mm 3 m/s 755 mmHg 87%
    09:00 +8°C° 0 mm 3 m/s 756 mmHg 83%
    10:00 +9°C° 0 mm 3 m/s 756 mmHg 79%
    11:00 +10°C° 0 mm 3 m/s 756 mmHg 75%
    12:00 +11°C° 0 mm 3 m/s 756 mmHg 71%
    13:00 +12°C° 0 mm 3 m/s 756 mmHg 70%
    14:00 +12°C° 0 mm 3 m/s 756 mmHg 69%
    15:00 +13°C° 0 mm 2 m/s 756 mmHg 69%
    16:00 +12°C° 0 mm 2 m/s 756 mmHg 74%
    17:00 +10°C° 0 mm 2 m/s 756 mmHg 78%
    18:00 +9°C° 0 mm 2 m/s 757 mmHg 83%
    19:00 +8°C° 0 mm 2 m/s 757 mmHg 86%
    20:00 +8°C° 0 mm 2 m/s 757 mmHg 88%
    21:00 +7°C° 0 mm 2 m/s 758 mmHg 90%
    22:00 +7°C° 0 mm 2 m/s 758 mmHg 91%
    23:00 +6°C° 0 mm 2 m/s 758 mmHg 92%

    Après-demain, 22 Février, Vendredi

    Heure Température Précipitation Vent Pression Humidité
    00:00 +6°C° 0 mm 2 m/s 759 mmHg 92%
    01:00 +7°C° 0 mm 1 m/s 759 mmHg 92%
    02:00 +7°C° 0 mm 1 m/s 759 mmHg 93%
    03:00 +7°C° 0 mm 1 m/s 759 mmHg 93%
    04:00 +6°C° 0 mm 1 m/s 759 mmHg 93%
    05:00 +6°C° 0 mm 1 m/s 760 mmHg 93%
    06:00 +6°C° 0 mm 1 m/s 760 mmHg 93%
    07:00 +7°C° 0 mm 1 m/s 760 mmHg 89%
    08:00 +8°C° 0 mm 1 m/s 760 mmHg 86%
    09:00 +9°C° 0 mm 1 m/s 761 mmHg 82%
    10:00 +11°C° 0 mm 1 m/s 761 mmHg 79%
    11:00 +12°C° 0 mm 1 m/s 761 mmHg 76%
    12:00 +13°C° 0 mm 1 m/s 761 mmHg 73%
    13:00 +14°C° 0 mm 1 m/s 761 mmHg 74%
    14:00 +14°C° 0 mm 2 m/s 761 mmHg 75%
    15:00 +14°C° 0 mm 2 m/s 761 mmHg 75%
    16:00 +13°C° 0 mm 2 m/s 761 mmHg 80%
    17:00 +12°C° 0 mm 2 m/s 762 mmHg 86%
    18:00 +9°C° 0 mm 2 m/s 762 mmHg 91%
    19:00 +9°C° 0 mm 2 m/s 762 mmHg 91%
    20:00 +8°C° 0 mm 2 m/s 762 mmHg 92%
    21:00 +7°C° 0 mm 2 m/s 762 mmHg 92%
    22:00 +7°C° 0 mm 2 m/s 762 mmHg 92%
    23:00 +6°C° 0 mm 2 m/s 762 mmHg 92%

    23 Février, Samedi

    Heure Température Précipitation Vent Pression Humidité
    00:00 +6°C° 0 mm 2 m/s 762 mmHg 92%
    01:00 +6°C° 0 mm 2 m/s 762 mmHg 91%
    02:00 +7°C° 0 mm 1 m/s 762 mmHg 90%
    03:00 +6°C° 0 mm 1 m/s 762 mmHg 89%
    04:00 +6°C° 0 mm 1 m/s 762 mmHg 89%
    05:00 +6°C° 0 mm 1 m/s 762 mmHg 89%
    06:00 +5°C° 0 mm 1 m/s 762 mmHg 89%
    07:00 +6°C° 0 mm 1 m/s 762 mmHg 83%
    08:00 +7°C° 0 mm 2 m/s 762 mmHg 77%
    09:00 +8°C° 0 mm 2 m/s 762 mmHg 70%
    10:00 +10°C° 0 mm 3 m/s 762 mmHg 63%
    11:00 +11°C° 0 mm 3 m/s 762 mmHg 55%
    12:00 +13°C° 0 mm 3 m/s 762 mmHg 47%
    13:00 +13°C° 0 mm 3 m/s 762 mmHg 47%
    14:00 +14°C° 0 mm 3 m/s 762 mmHg 46%
    15:00 +14°C° 0 mm 3 m/s 762 mmHg 45%
    16:00 +12°C° 0 mm 3 m/s 762 mmHg 49%
    17:00 +10°C° 0 mm 3 m/s 762 mmHg 52%
    18:00 +8°C° 0 mm 2 m/s 762 mmHg 56%
    19:00 +7°C° 0 mm 2 m/s 762 mmHg 54%
    20:00 +7°C° 0 mm 2 m/s 762 mmHg 51%
    21:00 +6°C° 0 mm 2 m/s 762 mmHg 49%
    22:00 +6°C° 0 mm 2 m/s 762 mmHg 48%
    23:00 +5°C° 0 mm 2 m/s 762 mmHg 48%

    24 Février, Dimanche

    Heure Température Précipitation Vent Pression Humidité
    00:00 +5°C° 0 mm 2 m/s 762 mmHg 47%
    01:00 +5°C° 0 mm 2 m/s 762 mmHg 48%
    02:00 +6°C° 0 mm 1 m/s 762 mmHg 49%
    03:00 +5°C° 0 mm 1 m/s 762 mmHg 50%
    04:00 +5°C° 0 mm 1 m/s 762 mmHg 51%
    05:00 +5°C° 0 mm 1 m/s 762 mmHg 51%
    06:00 +5°C° 0 mm 1 m/s 762 mmHg 51%
    07:00 +5°C° 0 mm 2 m/s 763 mmHg 50%
    08:00 +7°C° 0 mm 2 m/s 763 mmHg 48%
    09:00 +8°C° 0 mm 2 m/s 763 mmHg 47%
    10:00 +10°C° 0 mm 2 m/s 763 mmHg 45%
    11:00 +13°C° 0 mm 2 m/s 763 mmHg 43%
    12:00 +15°C° 0 mm 2 m/s 763 mmHg 41%
    13:00 +15°C° 0 mm 2 m/s 763 mmHg 43%
    14:00 +15°C° 0 mm 2 m/s 763 mmHg 45%
    15:00 +15°C° 0 mm 2 m/s 762 mmHg 47%
    16:00 +13°C° 0 mm 2 m/s 763 mmHg 52%
    17:00 +10°C° 0 mm 2 m/s 763 mmHg 57%
    18:00 +8°C° 0 mm 2 m/s 763 mmHg 62%
    19:00 +8°C° 0 mm 2 m/s 763 mmHg 61%
    20:00 +7°C° 0 mm 2 m/s 763 mmHg 61%
    21:00 +7°C° 0 mm 2 m/s 763 mmHg 60%
    22:00 +7°C° 0 mm 2 m/s 763 mmHg 60%
    23:00 +7°C° 0 mm 2 m/s 763 mmHg 60%

    25 Février, Lundi

    Heure Température Précipitation Vent Pression Humidité
    00:00 +6°C° 0 mm 2 m/s 763 mmHg 60%
    01:00 +7°C° 0 mm 1 m/s 763 mmHg 61%
    02:00 +7°C° 0 mm 1 m/s 763 mmHg 62%
    03:00 +7°C° 0 mm 1 m/s 763 mmHg 63%
    04:00 +7°C° 0 mm 1 m/s 763 mmHg 63%
    05:00 +6°C° 0 mm 1 m/s 763 mmHg 64%
    06:00 +6°C° 0 mm 1 m/s 763 mmHg 64%
    07:00 +8°C° 0 mm 1 m/s 763 mmHg 62%
    08:00 +9°C° 0 mm 1 m/s 763 mmHg 60%
    09:00 +11°C° 0 mm 1 m/s 763 mmHg 58%
    10:00 +13°C° 0 mm 1 m/s 763 mmHg 54%
    11:00 +14°C° 0 mm 1 m/s 763 mmHg 50%
    12:00 +16°C° 0 mm 2 m/s 763 mmHg 47%
    13:00 +18°C° 0 mm 1 m/s 763 mmHg 48%
    14:00 +18°C° 0 mm 1 m/s 762 mmHg 49%
    15:00 +18°C° 0 mm 1 m/s 762 mmHg 50%
    16:00 +15°C° 0 mm 2 m/s 762 mmHg 57%
    17:00 +13°C° 0 mm 2 m/s 762 mmHg 64%
    18:00 +10°C° 0 mm 2 m/s 761 mmHg 71%
    19:00 +9°C° 0 mm 2 m/s 762 mmHg 73%
    20:00 +9°C° 0 mm 2 m/s 762 mmHg 75%
    21:00 +8°C° 0 mm 2 m/s 762 mmHg 76%
    22:00 +8°C° 0 mm 2 m/s 762 mmHg 75%
    23:00 +7°C° 0 mm 2 m/s 761 mmHg 74%
    Voir plus